Regional Weather Roundup
Issued by NWS

Home | Current Version | Previous Version | Text Only | Print | Product List | Glossary Off
Versions: 1 2 3 4 5 6 7 8 9 10 11 12 13 14 15 16 17 18 19 20 21 22 23 24 25 26 27 28 29 30 31 32 33 34 35 36 37 38 39 40 41 42 43 44 45 46 47 48 49 50

000
ASUS43 KLOT 181210
RWRIL

ILLINOIS REGIONAL WEATHER ROUNDUP
NATIONAL WEATHER SERVICE CHICAGO/ROMEOVILLE IL
700 AM CDT THU SEP 18 2014

NOTE: "FAIR" INDICATES FEW OR NO CLOUDS BELOW 12,000 FEET WITH NO
SIGNIFICANT WEATHER AND/OR OBSTRUCTIONS TO VISIBILITY.

* THESE STATIONS ARE NOT UNDER NWS QUALITY CONTROL. THEY ALSO MAY NOT
  REPORT WEATHER SUCH AS PRECIPITATION OR FOG.

ILZ001-002-007-009-015-016-024-181300-
NORTHWEST ILLINOIS

CITY           SKY/WX    TMP DP  RH WIND       PRES   REMARKS
MOLINE         CLEAR     49  46  90 CALM      30.09R FOG
6HR MIN TEMP:  45; 6HR MAX TEMP:  50;

STERLING*      CLEAR     46  43  87 CALM      30.08R
SAVANNA*       CLEAR     48  46  94 CALM      30.09R FOG
$$

ILZ003-004-008-010-011-017-018-181300-
NORTH CENTRAL ILLINOIS

CITY           SKY/WX    TMP DP  RH WIND       PRES   REMARKS
ROCKFORD       CLEAR     49  45  86 NE5       30.12R FOG
6HR MIN TEMP:  48; 6HR MAX TEMP:  51;

FREEPORT*      FOG       42  41  96 CALM      30.12R VSB<1/4
ROCHELLE*      CLEAR     46  44  93 CALM      30.09R FOG
DE KALB*       CLEAR     45  43  95 NE5       30.11R FOG
PERU*          CLEAR     47  46  93 E3        30.10R FOG
$$

ILZ005-006-012>014-019>023-181300-
NORTHEAST ILLINOIS

CITY           SKY/WX    TMP DP  RH WIND       PRES   REMARKS
CHICAGO-OHARE  MOCLDY    54  51  90 N9        30.10R FOG
CHICAGO-MIDWAY PTCLDY    54  48  80 N3        30.10R
6HR MIN TEMP:  53; 6HR MAX TEMP:  59;

AURORA         CLEAR     48  44  86 NE8       30.10R FOG
6HR MIN TEMP:  44; 6HR MAX TEMP:  48;

LANSING*       CLEAR     46  46  98 CALM      30.10R
JOLIET*        CLEAR     44  43  96 CALM      30.10R FOG
WAUKEGAN       CLEAR     52  51  97 N3        30.10R
6HR MIN TEMP:  45; 6HR MAX TEMP:  53;

DUPAGE AIRPORT CLEAR     48  45  89 N3        30.10R FOG
6HR MIN TEMP:  45; 6HR MAX TEMP:  51;

KANKAKEE*      FOG       45  45  99 CALM      30.10R VSB 3/4
WHEELING       FOG       53  51  93 N3        30.11R VSB 1
6HR MIN TEMP:  50; 6HR MAX TEMP:  53;

MORRIS*          N/A     46  46 100 CALM      30.09R FOG
ROMEOVILLE*    CLEAR     48  48 100 NE10      30.10R FOG
NORTHERLY ISL    N/A     58  54  86 NW5         N/A
$$

LMZ740>746-181300-
SOUTHERN LAKE MICHIGAN

STATION/POSITION SKY/WX   TEMP    WIND        PRES    VSBY  WAVE
                          AIR SEA DIR/SP/G                  HT/PER
                          (F)     (DEG/KT/KT) (MB)    (MI)  (FT/S)
SOUTHERN BUOY              61 64  340/  6/  8 1018.9R         0
WAUKEGAN HARBOR            54     340/  7/  8   N/A
HARRISON CRIB              60     360/ 10/ 11   N/A
BURNHAM HARBOR             58     350/  5/  8   N/A
CALUMET HARBOR             54     300/  1/  3 1018.0R
MICHIGAN CITY              54      90/  8/ 10   N/A
MICHIGAN CITY 6N           58 64   90/  6/  6   N/A           1
ST. JOSEPH                 58 67   80/  6/  8   N/A           1
$$

ILZ025>027-034>036-040-047-049-050-058-095>099-181300-
WEST-CENTRAL ILLINOIS

CITY           SKY/WX    TMP DP  RH WIND       PRES   REMARKS
QUINCY         CLEAR     51  49  92 E6        30.04F FOG
GALESBURG*     CLEAR     46  45  97 CALM      30.09R
MACOMB*        PTCLDY    44  44 100 NE5       30.09R FOG
JACKSONVILLE*  CLEAR     49  49  98 E5        30.05F FOG
PITTSFIELD*    PTCLDY    51  49  94 CALM      30.06R FOG
$$

ILZ028>032-037-038-041>044-048-051>054-059>061-181300-
CENTRAL ILLINOIS

CITY           SKY/WX    TMP DP  RH WIND       PRES   REMARKS
PONTIAC        CLEAR     46  46 100 E3        30.08R FOG
DECATUR        CLEAR     48  46  93 CALM      30.08R FOG
PEORIA         FOG       51  48  89 NE3       30.09R VSB 1/4
6HR MIN TEMP:  50; 6HR MAX TEMP:  55;

LACON*         CLEAR     46  45  97 CALM      30.08R FOG
LINCOLN*       CLEAR     49  48  96 CALM      30.07R FOG
SPRINGFIELD    CLEAR     48  46  93 NE3       30.07R
6HR MIN TEMP:  47; 6HR MAX TEMP:  52;

TAYLORVILLE    CLEAR     45  45 100 NE3       30.06S FOG
$$

ILZ033-039-045-046-055>057-062-063-181300-
EAST-CENTRAL ILLINOIS

CITY           SKY/WX    TMP DP  RH WIND       PRES   REMARKS
CHAMPAIGN      PTCLDY    49  47  93 NE3       30.08R
DANVILLE*      CLEAR     44  44  99 CALM      30.06R FOG
RANTOUL*       CLEAR     53  47  82 CALM      30.09R
MATTOON        CLEAR     50  48  93 NE5       30.06S FOG
PARIS*         CLEAR     46  46 100 CALM      30.08R FOG
$$

ILZ079-100>102-181300-
SOUTHWEST ILLINOIS

CITY           SKY/WX    TMP DP  RH WIND       PRES   REMARKS
ALTON          CLOUDY    59  55  88 E8        30.03S
BELLEVILLE     CLOUDY    60  59  96 N1        30.02R
CAHOKIA*       CLOUDY    61  57  87 NE3       30.02R
SPARTA*        CLOUDY    56  55  94 CALM      30.02R FOG
$$

ILZ064>066-069>071-074>076-080>082-084>086-088>090-092>094-181300-
SOUTH-CENTRAL ILLINOIS

CITY           SKY/WX    TMP DP  RH WIND       PRES   REMARKS
CARBONDALE     CLOUDY    59  56  89 CALM      30.01R
6HR MIN TEMP:  58; 6HR MAX TEMP:  62;

CAIRO*         CLOUDY    63  60  92 CALM      29.99S FOG
EFFINGHAM*     MOCLDY    53  50  89 CALM      30.06R FOG
MARION         MOCLDY    57  55  94 E6        30.02R
MT. VERNON     MOCLDY    59  52  77 N6        30.04R
CENTRALIA*     CLOUDY    59  54  83 NE5       30.03R
SALEM*         CLOUDY    61  57  85 NE6       30.04R
METROPOLIS*    CLOUDY    61  61 100 CALM      29.99R
$$

ILZ067-068-072-073-078-083-087-091-181300-
SOUTHEAST ILLINOIS

CITY           SKY/WX    TMP DP  RH WIND       PRES   REMARKS
LAWRENCEVILLE  MOCLDY    54  52  93 NE6       30.05S FOG
FLORA*         CLEAR     57  54  89 NE6       30.05S
FAIRFIELD*     CLOUDY   N/A N/A N/A CALM      30.03R
HARRISBURG*    MOCLDY    58  56  94 NE6       30.02S
ROBINSON*      FOG       47  47  99 CALM      30.07S VSB 1/4
CARMI*         CLOUDY    60  56  87 CALM      30.02S
$$

ABBREVIATIONS USED IN REMARKS
   TC - TEMPERATURE IN CELSIUS
  WCI - WIND CHILL INDEX
   HX - HEAT INDEX
  VSB - VISIBILITY
$$



USA.gov is the U.S. government's official web portal to all federal, state and local government web resources and services.